Location: Bats
(43.6587°N, 0.4584°W)
Time: 22:35:54
(UTC+00:00)

BREEZE-M DEB (TANK) - Visible Passes

Search period start: 18 April 2026 00:00
Search period end: 28 April 2026 00:00
Orbit: 618 x 17094 km, 49.5° (Epoch: 17 April)

Date Brightness Start Highest point End Pass type
(mag) Time Alt. Az. Time Alt. Az. Time Alt. Az.
19 Apr 8.3 01:37:56 10° S 03:21:44 55° SE 03:40:19 10° ENE visible
19 Apr 9.2 23:08:44 10° SE 23:48:17 16° ESE 00:09:06 10° E visible
20 Apr 7.2 04:06:49 10° SW 05:32:54 85° SSE 05:44:38 10° ENE visible
21 Apr 8.8 00:23:06 10° S 02:00:42 42° SE 02:23:36 10° ENE visible
22 Apr 7.8 02:30:09 10° SSW 04:13:51 70° SE 04:29:02 10° ENE visible
22 Apr 8.9 23:22:54 11° SSE 00:39:40 29° ESE 01:05:19 10° ENE visible
24 Apr 8.3 01:27:56 17° S 02:53:34 56° SE 03:13:02 10° ENE visible
24 Apr 9.1 22:35:05 10° SE 23:19:57 17° ESE 23:42:32 10° E visible
25 Apr 7.3 03:33:03 10° SW 05:05:07 86° SSE 05:17:24 10° ENE visible
26 Apr 8.7 00:22:11 20° SSE 01:32:20 43° SE 01:56:19 10° ENE visible
27 Apr 7.8 02:24:39 19° SSW 03:45:50 72° SE 04:01:46 10° ENE visible
